Change the Weather History Date:

Friday, July 4, 2014

  Actual Average Record
Temperature  
Mean Temperature 68 °F -  
Max Temperature 81 °F 80 °F 100 °F (2012)
Min Temperature 57 °F 61 °F 55 °F (2008)
Cooling Degree Days 2    
Growing Degree Days 18 (Base 50)    
Moisture  
Dew Point 54 °F    
Average Humidity 59    
Maximum Humidity 93    
Minimum Humidity 41    
Precipitation  
Precipitation 0.00 in - - ()
Sea Level Pressure  
Sea Level Pressure 30.19 in    
Wind  
Wind Speed 6 mph (South)    
Max Wind Speed 16 mph    
Max Gust Speed 23 mph    
Visibility 10 miles    
Events      
Averages and records for this station are not official NWS values.
T = Trace of Precipitation, MM = Missing Value Source: NWS Daily Summary

Daily Weather History Graph

Daily Weather History Graph

Search for Another Location

Airport or City:

Trip Planner

Search our weather history database for the weather conditions in past years. The results will help you decide how hot, cold, wet, or windy it might be!

Date:

Astronomy

Jul. 04, 2014 Rise Set
Actual Time 5:33 AM CDT 9:02 PM CDT
Civil Twilight 4:56 AM CDT 9:39 PM CDT
Nautical Twilight 4:08 AM CDT 10:27 PM CDT
Astronomical Twilight 3:05 AM CDT 11:29 PM CDT
Moon 12:49 PM CDT (7/4) 12:08 AM CDT (7/4)
Length of Visible Light 16h 42m
Length of Day
15h 29m
Waxing Crescent, 42% of the Moon is Illuminated
Jul 4
Waxing Crescent
Jul 5
First Quarter
Jul 12
Full
Jul 18
Last Quarter
Jul 26
New

Hourly Weather History & Observations

Time (CDT) Temp. Dew Point Humidity Pressure Visibility Wind Dir Wind Speed Gust Speed Precip Events Conditions
12:53 AM 62.1 °F 52.0 °F 70% 30.21 in 10.0 mi Calm Calm - N/A   Clear
1:53 AM 61.0 °F 52.0 °F 72% 30.21 in 10.0 mi Calm Calm - N/A   Clear
2:53 AM 60.1 °F 55.0 °F 83% 30.23 in 10.0 mi Calm Calm - N/A   Clear
3:53 AM 57.0 °F 55.0 °F 93% 30.23 in 9.0 mi Calm Calm - N/A   Clear
4:53 AM 59.0 °F 55.0 °F 87% 30.24 in 10.0 mi South 3.5 mph - N/A   Clear
5:53 AM 57.9 °F 52.0 °F 81% 30.24 in 10.0 mi Calm Calm - N/A   Clear
6:53 AM 61.0 °F 54.0 °F 78% 30.25 in 10.0 mi South 4.6 mph - N/A   Clear
7:53 AM 64.9 °F 54.0 °F 68% 30.26 in 10.0 mi South 3.5 mph - N/A   Clear
8:53 AM 70.0 °F 54.0 °F 57% 30.25 in 10.0 mi South 5.8 mph - N/A   Clear
9:53 AM 73.0 °F 53.1 °F 49% 30.25 in 10.0 mi South 11.5 mph - N/A   Clear
10:53 AM 75.0 °F 53.1 °F 46% 30.24 in 10.0 mi South 11.5 mph - N/A   Overcast
11:53 AM 77.0 °F 52.0 °F 42% 30.22 in 10.0 mi SSE 16.1 mph 20.7 mph N/A   Scattered Clouds
12:53 PM 75.0 °F 50.0 °F 41% 30.22 in 10.0 mi South 11.5 mph 20.7 mph N/A   Overcast
1:53 PM 73.9 °F 48.9 °F 41% 30.22 in 10.0 mi South 12.7 mph - N/A   Overcast
2:53 PM 78.1 °F 54.0 °F 43% 30.20 in 10.0 mi SSE 10.4 mph - N/A   Mostly Cloudy
3:53 PM 77.0 °F 53.1 °F 43% 30.18 in 10.0 mi SSE 16.1 mph - N/A   Overcast
4:53 PM 78.1 °F 55.0 °F 45% 30.17 in 10.0 mi South 11.5 mph 23.0 mph N/A   Overcast
5:53 PM 77.0 °F 55.9 °F 48% 30.15 in 10.0 mi SSE 16.1 mph 23.0 mph N/A   Overcast
6:53 PM 75.9 °F 55.9 °F 50% 30.13 in 10.0 mi SSE 12.7 mph - N/A   Clear
7:53 PM 75.0 °F 55.9 °F 51% 30.11 in 10.0 mi SSE 12.7 mph - N/A   Clear
8:53 PM 73.0 °F 55.9 °F 55% 30.09 in 10.0 mi SSE 9.2 mph - N/A   Clear
9:53 PM 71.1 °F 55.0 °F 57% 30.10 in 10.0 mi South 11.5 mph - N/A   Clear
10:53 PM 70.0 °F 55.0 °F 59% 30.11 in 10.0 mi South 8.1 mph - N/A   Clear
11:53 PM 71.1 °F 55.0 °F 57% 30.10 in 10.0 mi South 11.5 mph - 0.00 in   Scattered Clouds